Powrót do katalogu

STARLINK-34582

AktywnyŁącznośćVLEO
NORAD 64781·PAYLOAD·🇺🇸 United States

Wystrzelony Jul 8, 2025 z Cape Canaveral Space Force Station

Loading…

Następne Przeloty (najbliższe 24 godziny)

TLE

ŚwieżeSource: CelesTrak SupGP

Epoka: Sep 14, 2026, 21:21 UTC

1 64781C 25147AC  26257.89006944  .00021294  00000+0  62922-3 0  2575
2 64781  53.1585  79.5868 0001265  83.4906 160.3097 15.34375964    16

Śledź STARLINK-34582 w czasie rzeczywistym z AllMySat

Download on the App Store